Year,Month,Day,Hour,Minute,Value (Times are PST for windspeed in km/hr)
2008,12,27,09,24,0.00
2008,12,27,09,25,0.00
2008,12,27,09,26,0.00
2008,12,27,09,27,0.00
2008,12,27,09,28,0.00
2008,12,27,09,29,0.00
2008,12,27,09,30,0.00
2008,12,27,09,31,0.00
2008,12,27,09,32,0.00
2008,12,27,09,33,0.00
2008,12,27,09,34,0.00
2008,12,27,09,35,0.00
2008,12,27,09,36,0.00
2008,12,27,09,37,0.00
2008,12,27,09,38,0.00
2008,12,27,09,39,0.00
2008,12,27,09,40,0.00
2008,12,27,09,41,0.00
2008,12,27,09,42,0.00
2008,12,27,09,43,0.10
2008,12,27,09,44,0.80
2008,12,27,09,45,0.00
2008,12,27,09,46,0.00
2008,12,27,09,47,0.00
2008,12,27,09,48,0.00
2008,12,27,09,49,0.00
2008,12,27,09,50,0.00
2008,12,27,09,51,0.00
2008,12,27,09,52,0.00
2008,12,27,09,53,0.00
2008,12,27,09,54,2.80
2008,12,27,09,55,0.90
2008,12,27,09,56,2.80
2008,12,27,09,57,0.30
2008,12,27,09,58,0.00
2008,12,27,09,59,0.10
2008,12,27,10,00,0.00
2008,12,27,10,01,0.00
2008,12,27,10,02,0.00
2008,12,27,10,03,0.70
2008,12,27,10,04,0.20
2008,12,27,10,05,0.10
2008,12,27,10,06,0.50
2008,12,27,10,07,0.60
2008,12,27,10,08,1.30
2008,12,27,10,09,3.20
2008,12,27,10,10,1.60
2008,12,27,10,11,3.60
2008,12,27,10,12,3.80
2008,12,27,10,13,1.30
2008,12,27,10,14,5.40
2008,12,27,10,15,2.80
2008,12,27,10,16,0.40
2008,12,27,10,17,0.00
2008,12,27,10,18,0.00
2008,12,27,10,19,0.30
2008,12,27,10,20,2.20
2008,12,27,10,21,3.80
2008,12,27,10,22,1.30
2008,12,27,10,23,0.10
2008,12,27,10,24,4.50
2008,12,27,10,25,3.10
2008,12,27,10,26,2.20
2008,12,27,10,27,1.70
2008,12,27,10,28,2.80
2008,12,27,10,29,0.50
2008,12,27,10,30,0.00
2008,12,27,10,31,0.00
2008,12,27,10,32,2.50
2008,12,27,10,33,3.60
2008,12,27,10,34,3.40
2008,12,27,10,35,7.50
2008,12,27,10,36,7.90
2008,12,27,10,37,2.40
2008,12,27,10,38,0.00
2008,12,27,10,39,0.00
2008,12,27,10,40,0.10
2008,12,27,10,41,2.90
2008,12,27,10,42,3.80
2008,12,27,10,43,0.40
2008,12,27,10,44,0.00
2008,12,27,10,45,6.10
2008,12,27,10,46,6.70
2008,12,27,10,47,8.20
2008,12,27,10,48,12.60
2008,12,27,10,49,8.90
2008,12,27,10,50,12.80
2008,12,27,10,51,5.10
2008,12,27,10,52,4.80
2008,12,27,10,53,1.10
2008,12,27,10,54,6.30
2008,12,27,10,55,7.30
2008,12,27,10,56,8.30
2008,12,27,10,57,11.30
2008,12,27,10,58,7.10
2008,12,27,10,59,3.20
2008,12,27,11,00,0.80
2008,12,27,11,01,0.00
2008,12,27,11,02,5.60
2008,12,27,11,03,4.70
2008,12,27,11,04,4.70
2008,12,27,11,05,3.50
2008,12,27,11,06,4.40
2008,12,27,11,07,4.30
2008,12,27,11,08,3.30
2008,12,27,11,09,1.00
2008,12,27,11,10,5.80
2008,12,27,11,11,3.10
2008,12,27,11,12,3.70
2008,12,27,11,13,4.00
2008,12,27,11,14,5.90
2008,12,27,11,15,6.60
2008,12,27,11,16,5.30
2008,12,27,11,17,5.50
2008,12,27,11,18,6.40
2008,12,27,11,19,4.70
2008,12,27,11,20,5.00
2008,12,27,11,21,5.70
2008,12,27,11,22,6.10
2008,12,27,11,23,2.60
2008,12,27,11,24,5.30
2008,12,27,11,25,7.40
2008,12,27,11,26,5.90
2008,12,27,11,27,6.30
2008,12,27,11,28,2.10
2008,12,27,11,29,0.00
2008,12,27,11,30,1.60
2008,12,27,11,31,2.00
2008,12,27,11,32,2.90
2008,12,27,11,33,5.20
2008,12,27,11,34,2.60
2008,12,27,11,35,2.10
2008,12,27,11,36,0.00
2008,12,27,11,37,1.90
2008,12,27,11,38,2.10
2008,12,27,11,39,3.80
2008,12,27,11,40,2.10
2008,12,27,11,41,0.10
2008,12,27,11,42,0.80
2008,12,27,11,43,0.00
2008,12,27,11,44,0.00
2008,12,27,11,45,0.00
2008,12,27,11,46,1.50
2008,12,27,11,47,3.00
2008,12,27,11,48,3.80
2008,12,27,11,49,1.00
2008,12,27,11,50,0.10
2008,12,27,11,51,1.00
2008,12,27,11,52,8.90
2008,12,27,11,53,3.30
2008,12,27,11,54,0.20
2008,12,27,11,55,5.10
2008,12,27,11,56,2.50
2008,12,27,11,57,4.60
2008,12,27,11,58,4.60
2008,12,27,11,59,0.60
2008,12,27,12,00,2.80
2008,12,27,12,01,1.00
2008,12,27,12,02,0.50
2008,12,27,12,03,1.50
2008,12,27,12,04,7.50
2008,12,27,12,05,5.80
2008,12,27,12,06,4.30
2008,12,27,12,07,1.30
2008,12,27,12,08,0.00
2008,12,27,12,09,5.00
2008,12,27,12,10,4.60
2008,12,27,12,11,1.60
2008,12,27,12,12,0.00
2008,12,27,12,13,0.00
2008,12,27,12,14,0.40
2008,12,27,12,15,2.30
2008,12,27,12,16,2.90
2008,12,27,12,17,3.50
2008,12,27,12,18,1.20
2008,12,27,12,19,1.80
2008,12,27,12,20,1.10
2008,12,27,12,21,1.80
2008,12,27,12,22,5.20
2008,12,27,12,23,4.10
2008,12,27,12,24,5.00
2008,12,27,12,25,6.50
2008,12,27,12,26,2.10
2008,12,27,12,27,1.50
2008,12,27,12,28,0.30
2008,12,27,12,29,3.30
2008,12,27,12,30,2.70
2008,12,27,12,31,0.90
2008,12,27,12,32,8.10
2008,12,27,12,33,1.50
2008,12,27,12,34,0.00
2008,12,27,12,35,0.10
2008,12,27,12,36,1.30
2008,12,27,12,37,3.50
2008,12,27,12,38,6.30
2008,12,27,12,39,2.10
2008,12,27,12,40,0.70
2008,12,27,12,41,2.70
2008,12,27,12,42,1.20
2008,12,27,12,43,0.80
2008,12,27,12,44,0.00
2008,12,27,12,45,0.00
2008,12,27,12,46,0.10
2008,12,27,12,47,1.60
2008,12,27,12,48,5.20
2008,12,27,12,49,0.40
2008,12,27,12,50,5.30
2008,12,27,12,51,2.60
2008,12,27,12,52,0.00
2008,12,27,12,53,2.90
2008,12,27,12,54,1.00
2008,12,27,12,55,8.40
2008,12,27,12,56,3.60
2008,12,27,12,57,4.10
2008,12,27,12,58,9.20
2008,12,27,12,59,10.50
2008,12,27,13,00,9.00
2008,12,27,13,01,9.40
2008,12,27,13,02,10.10
2008,12,27,13,03,7.50
2008,12,27,13,04,6.00
2008,12,27,13,05,8.10
2008,12,27,13,06,4.30
2008,12,27,13,07,3.30
2008,12,27,13,08,5.00
2008,12,27,13,09,5.40
2008,12,27,13,10,0.80
2008,12,27,13,11,3.40
2008,12,27,13,12,0.10
2008,12,27,13,13,4.30
2008,12,27,13,14,3.20
2008,12,27,13,15,2.70
2008,12,27,13,16,5.00
2008,12,27,13,17,4.60
2008,12,27,13,18,0.00
2008,12,27,13,19,10.30
2008,12,27,13,20,9.00
2008,12,27,13,21,8.60
2008,12,27,13,22,6.10
2008,12,27,13,23,6.30
2008,12,27,13,24,4.70
2008,12,27,13,25,1.00
2008,12,27,13,26,0.00
2008,12,27,13,27,3.40
2008,12,27,13,28,6.80
2008,12,27,13,29,8.70
2008,12,27,13,30,10.00
2008,12,27,13,31,7.60
2008,12,27,13,32,9.30
2008,12,27,13,33,6.60
2008,12,27,13,34,12.80
2008,12,27,13,35,10.70
2008,12,27,13,36,4.50
2008,12,27,13,37,8.90
2008,12,27,13,38,6.10
2008,12,27,13,39,4.60
2008,12,27,13,40,4.60
2008,12,27,13,41,4.20
2008,12,27,13,42,1.90
2008,12,27,13,43,1.20
2008,12,27,13,44,1.20
2008,12,27,13,45,2.20
2008,12,27,13,46,0.30
2008,12,27,13,47,2.70
2008,12,27,13,48,3.30
2008,12,27,13,49,5.80
2008,12,27,13,50,7.30
2008,12,27,13,51,4.50
2008,12,27,13,52,8.50
2008,12,27,13,53,2.10
2008,12,27,13,54,4.60
2008,12,27,13,55,3.80
2008,12,27,13,56,7.20
2008,12,27,13,57,4.10
2008,12,27,13,58,2.10
2008,12,27,13,59,0.20
2008,12,27,14,00,2.70
2008,12,27,14,01,0.00
2008,12,27,14,02,3.60
2008,12,27,14,03,4.90
2008,12,27,14,04,9.20
2008,12,27,14,05,6.90
2008,12,27,14,06,7.50
2008,12,27,14,07,7.20
2008,12,27,14,08,7.40
2008,12,27,14,09,7.80
2008,12,27,14,10,7.80
2008,12,27,14,11,4.80
2008,12,27,14,12,4.10
2008,12,27,14,13,3.90
2008,12,27,14,14,2.70
2008,12,27,14,15,4.30
2008,12,27,14,16,6.90
2008,12,27,14,17,0.50
2008,12,27,14,18,2.60
2008,12,27,14,19,5.40
2008,12,27,14,20,4.20
2008,12,27,14,21,0.10
2008,12,27,14,22,5.10
2008,12,27,14,23,4.90
2008,12,27,14,24,5.00
2008,12,27,14,25,8.00
2008,12,27,14,26,8.80
2008,12,27,14,27,6.80
2008,12,27,14,28,5.40
2008,12,27,14,29,1.90
2008,12,27,14,30,2.20
2008,12,27,14,31,5.80
2008,12,27,14,32,4.70
2008,12,27,14,33,0.00
2008,12,27,14,34,0.10
2008,12,27,14,35,0.80
2008,12,27,14,36,1.00
2008,12,27,14,37,4.10
2008,12,27,14,38,0.60
2008,12,27,14,39,3.00
2008,12,27,14,40,1.00
2008,12,27,14,41,0.10
2008,12,27,14,42,0.10
2008,12,27,14,43,5.00
2008,12,27,14,44,1.30
2008,12,27,14,45,0.80
2008,12,27,14,46,7.00
2008,12,27,14,47,4.30
2008,12,27,14,48,0.10
2008,12,27,14,49,3.60
2008,12,27,14,50,5.60
2008,12,27,14,51,3.90
2008,12,27,14,52,3.80
2008,12,27,14,53,4.50
2008,12,27,14,54,4.00
2008,12,27,14,55,3.60
2008,12,27,14,56,4.10
2008,12,27,14,57,5.30
2008,12,27,14,58,2.30
2008,12,27,14,59,3.80
2008,12,27,15,00,0.00
2008,12,27,15,01,4.60
2008,12,27,15,02,3.90
2008,12,27,15,03,3.90
2008,12,27,15,04,4.70
2008,12,27,15,05,3.60
2008,12,27,15,06,2.70
2008,12,27,15,07,2.20
2008,12,27,15,08,5.40
2008,12,27,15,09,4.10
2008,12,27,15,10,5.50
2008,12,27,15,11,8.50
2008,12,27,15,12,6.50
2008,12,27,15,13,8.20
2008,12,27,15,14,8.00
2008,12,27,15,15,11.60
2008,12,27,15,16,5.90
2008,12,27,15,17,4.60
2008,12,27,15,18,3.20
2008,12,27,15,19,3.60
2008,12,27,15,20,8.00
2008,12,27,15,21,7.30
2008,12,27,15,22,10.60
2008,12,27,15,23,8.50
2008,12,27,15,24,5.00
2008,12,27,15,25,7.10
2008,12,27,15,26,6.20
2008,12,27,15,27,6.80
2008,12,27,15,28,7.20
2008,12,27,15,29,0.50
2008,12,27,15,30,4.60
2008,12,27,15,31,3.10
2008,12,27,15,32,3.10
2008,12,27,15,33,1.00
2008,12,27,15,34,10.10
2008,12,27,15,35,9.10
2008,12,27,15,36,4.90
2008,12,27,15,37,4.20
2008,12,27,15,38,6.10
2008,12,27,15,39,6.80
2008,12,27,15,40,4.40
2008,12,27,15,41,3.50
2008,12,27,15,42,2.60
2008,12,27,15,43,6.30
2008,12,27,15,44,1.50
2008,12,27,15,45,2.70
2008,12,27,15,46,4.30
2008,12,27,15,47,3.00
2008,12,27,15,48,0.70
2008,12,27,15,49,2.40
2008,12,27,15,50,2.00
2008,12,27,15,51,0.10
2008,12,27,15,52,0.00
2008,12,27,15,53,3.20
2008,12,27,15,54,6.10
2008,12,27,15,55,3.20
2008,12,27,15,56,6.30
2008,12,27,15,57,5.80
2008,12,27,15,58,6.30
2008,12,27,15,59,3.50
2008,12,27,16,00,1.50
2008,12,27,16,01,2.90
2008,12,27,16,02,1.00
2008,12,27,16,03,3.00
2008,12,27,16,04,8.10
2008,12,27,16,05,8.10
2008,12,27,16,06,8.10
2008,12,27,16,07,8.10
2008,12,27,16,08,8.10
2008,12,27,16,09,8.10
2008,12,27,16,10,8.10
2008,12,27,16,11,8.10
2008,12,27,16,12,8.10
2008,12,27,16,13,8.10
2008,12,27,16,14,8.10
